Date,TemperatureHighF,TemperatureAvgF,TemperatureLowF,DewpointHighF,DewpointAvgF,DewpointLowF,HumidityHigh,HumidityAvg,HumidityLow,PressureMaxIn,PressureMinIn,WindSpeedMaxMPH,WindSpeedAvgMPH,GustSpeedMaxMPH,PrecipitationSumIn
2013-1-1,44.7,40.7,36.5,31.2,28.4,24.0,72,62,54,29.94,29.82,6,0,0,0.00
2013-1-2,37.8,32.6,26.7,29.3,19.6,14.3,71,59,42,30.16,29.91,9,1,0,0.00
2013-1-3,37.4,29.8,23.6,21.2,18.6,16.3,77,63,46,30.17,30.06,4,0,0,0.00
2013-1-4,42.4,34.8,26.5,24.0,21.9,18.9,78,60,46,30.12,30.00,9,1,13,0.00
2013-1-5,42.7,35.7,30.5,32.7,24.7,20.4,86,65,48,30.29,30.05,6,0,0,0.00
2013-1-6,50.5,41.2,30.3,34.0,31.1,27.2,89,69,46,30.12,29.94,6,0,0,0.01
2013-1-7,47.2,39.6,28.7,30.3,28.1,23.4,85,64,48,30.35,30.05,8,1,0,0.00
2013-1-8,52.1,39.4,28.5,37.2,32.0,25.1,89,76,51,30.35,30.28,7,0,0,0.00
2013-1-9,52.4,42.4,31.5,43.4,36.1,28.3,89,79,50,30.30,30.13,7,0,0,0.00
2013-1-10,51.6,44.0,35.6,33.6,30.5,26.8,76,59,43,30.51,30.27,7,0,0,0.00
2013-1-11,44.2,39.8,33.4,39.7,35.0,29.9,88,83,73,30.42,30.01,2,0,0,0.07
2013-1-12,52.4,44.9,41.3,46.7,40.5,36.9,89,84,80,30.09,30.01,3,0,0,0.00
2013-1-13,49.6,44.6,39.5,43.6,39.5,35.1,86,82,79,30.06,29.90,3,0,0,0.05
2013-1-14,55.7,49.4,40.3,51.2,42.9,36.8,89,78,65,30.21,29.86,11,0,0,0.17
2013-1-15,40.3,38.4,35.6,37.0,34.7,31.8,89,86,83,30.26,30.08,5,0,0,0.76
2013-1-16,40.7,37.5,34.5,36.1,33.3,30.3,86,85,83,30.08,29.74,7,0,13,0.49
2013-1-17,43.9,40.5,37.7,37.5,33.6,30.7,89,76,63,30.04,29.88,8,0,0,0.01
2013-1-18,37.7,33.1,25.9,31.0,19.8,9.7,83,60,35,30.42,29.94,10,1,0,0.00
2013-1-19,50.6,40.5,31.0,36.3,29.0,20.6,84,64,45,30.35,29.88,10,1,0,0.00
2013-1-20,58.9,46.2,34.7,33.2,25.3,14.4,63,45,24,30.01,29.73,12,2,15,0.00
2013-1-21,41.3,34.7,29.3,33.9,21.6,13.2,81,59,46,30.03,29.72,10,1,12,0.00
2013-1-22,29.5,21.0,16.2,13.2,0.7,-4.3,51,40,31,30.22,29.82,13,3,17,0.00
2013-1-23,24.6,19.4,12.7,9.9,1.1,-2.1,60,45,35,30.26,30.08,12,1,13,0.00
2013-1-24,26.3,20.5,15.9,14.7,8.7,1.4,86,62,34,30.43,30.02,12,1,13,0.00
2013-1-25,24.0,19.2,15.0,17.2,9.0,2.3,87,66,43,30.43,29.99,5,0,0,0.00
2013-1-26,33.2,25.2,19.6,19.5,18.0,15.5,86,75,54,30.35,30.00,9,0,0,0.03
2013-1-27,35.1,26.1,18.1,24.0,19.6,14.7,88,77,54,30.52,30.35,3,0,0,0.01
2013-1-28,39.5,34.2,27.4,36.0,30.1,24.1,88,85,76,30.43,29.96,4,0,0,0.10
2013-1-29,60.3,46.1,33.3,50.8,40.2,28.6,88,80,69,30.05,29.91,4,0,0,0.00
2013-1-30,63.3,53.1,44.8,58.3,48.3,40.3,87,84,79,29.91,29.18,9,1,0,0.32
2013-1-31,58.3,43.5,27.3,53.1,27.8,12.1,87,55,32,29.84,29.07,17,3,18,0.61
2013-2-1,33.2,26.6,19.6,27.0,12.7,4.4,88,57,39,30.29,29.73,14,2,18,0.00
2013-2-2,31.3,23.9,16.6,23.3,10.4,5.7,86,56,41,30.29,30.00,7,1,0,0.00
2013-2-3,33.5,30.4,25.1,27.1,25.4,20.9,88,82,68,29.87,29.75,11,0,14,0.01
2013-2-4,36.0,29.8,21.6,29.0,17.2,10.7,84,60,45,30.02,29.82,11,1,13,0.00
2013-2-5,36.6,33.0,29.2,30.2,28.2,24.6,88,83,75,29.86,29.77,3,0,0,0.00
2013-2-6,44.8,35.6,27.3,33.0,26.7,21.4,88,71,49,30.28,29.85,12,1,13,0.00
2013-2-7,35.9,28.9,24.9,25.8,22.9,20.2,87,79,61,30.37,30.26,4,0,0,0.00
2013-2-8,40.3,37.5,33.3,36.4,32.6,23.6,88,82,65,29.96,29.61,17,2,19,0.47
2013-2-9,39.1,32.5,28.0,23.5,18.6,16.4,66,56,43,30.30,29.78,20,3,23,0.00
2013-2-10,39.9,31.7,21.2,31.0,18.8,1.3,84,61,22,30.41,30.18,8,0,0,0.00
2013-2-11,54.3,43.8,35.6,50.1,38.9,31.0,87,83,77,30.18,29.60,7,0,0,0.33
2013-2-12,55.7,45.3,35.3,45.0,31.4,27.4,85,60,37,29.91,29.71,11,1,12,0.00
2013-2-13,44.3,35.9,29.8,34.2,29.8,26.3,87,79,61,29.89,29.57,4,0,0,0.17
2013-2-14,46.7,37.4,32.1,33.2,30.3,27.4,88,76,49,29.94,29.67,6,0,0,0.06
2013-2-15,55.7,43.3,34.9,39.9,35.2,30.8,88,74,50,29.95,29.81,12,1,13,0.06
2013-2-16,36.9,34.9,32.2,33.1,29.4,20.4,88,80,61,29.94,29.72,7,1,0,0.13
2013-2-17,33.0,28.5,23.7,20.4,13.6,7.9,69,54,38,30.10,29.72,15,3,16,0.00
2013-2-18,40.7,29.3,20.4,30.0,14.0,6.7,85,55,27,30.29,30.09,11,1,16,0.00
2013-2-19,44.7,39.3,33.9,41.1,33.2,23.2,87,79,54,30.09,29.64,8,1,0,0.05
2013-2-20,38.4,32.4,24.8,23.6,16.2,9.5,59,51,43,30.06,29.75,13,3,17,0.00
2013-2-21,38.3,29.8,22.9,18.3,14.9,10.9,64,54,43,30.24,30.03,13,2,15,0.00
2013-2-22,34.4,30.9,28.5,27.0,21.5,17.6,78,68,62,30.32,30.20,5,0,0,0.00
2013-2-23,43.7,41.7,36.0,37.6,35.7,30.4,80,79,78,29.92,29.71,5,0,0,0.20
2013-2-24,50.8,41.9,32.2,41.1,30.5,21.3,88,65,40,30.01,29.70,12,2,16,0.00
2013-2-25,46.7,35.6,28.2,28.4,24.2,20.3,86,64,47,30.14,30.01,7,1,0,0.00
2013-2-26,45.4,36.9,27.9,39.3,32.3,24.3,88,83,76,30.15,29.52,12,1,14,0.90
2013-2-27,56.2,47.3,41.1,42.3,37.9,33.6,87,71,54,29.61,29.41,14,1,14,0.04
2013-2-28,48.2,42.9,39.2,36.9,31.7,25.0,86,65,41,29.64,29.53,11,1,12,0.02
2013-3-1,45.4,41.0,36.5,32.4,29.7,24.7,75,64,55,29.77,29.62,7,1,0,0.00
2013-3-2,37.9,34.4,30.4,25.2,23.2,20.5,74,63,55,29.78,29.71,10,2,13,0.00
2013-3-3,38.2,33.3,28.3,22.5,20.8,19.2,73,60,50,29.81,29.69,11,2,14,0.00
2013-3-4,42.4,34.1,27.7,21.9,18.8,16.0,69,54,42,29.94,29.80,13,2,15,0.00
2013-3-5,44.7,35.7,24.3,30.5,23.2,18.1,80,61,42,30.00,29.75,7,0,0,0.00
2013-3-6,40.0,37.1,33.9,35.0,32.4,28.8,87,83,70,29.87,29.52,16,3,19,1.08
2013-3-7,48.0,40.8,35.0,30.7,28.5,25.2,76,62,48,30.05,29.86,15,3,17,0.00
2013-3-8,46.5,41.4,34.4,29.7,26.6,22.9,71,56,48,30.16,30.01,16,3,19,0.00
2013-3-9,61.4,44.8,33.8,29.9,25.3,19.5,67,48,21,30.24,30.15,7,1,0,0.00
2013-3-10,60.2,45.4,31.6,38.0,29.5,17.6,86,58,19,30.26,30.16,6,0,0,0.00
2013-3-11,56.8,47.7,40.7,49.4,42.4,36.3,87,82,75,30.18,29.88,5,0,0,0.00
2013-3-12,60.3,50.9,42.2,52.8,43.6,31.3,87,76,60,29.90,29.61,11,1,12,0.82
2013-3-13,50.8,41.2,30.9,36.0,27.2,18.9,87,60,30,29.95,29.80,12,2,15,0.00
2013-3-14,45.4,37.2,30.9,20.6,17.8,14.2,62,46,30,30.01,29.91,14,3,18,0.00
2013-3-15,55.9,42.5,28.3,31.8,23.7,17.9,73,49,29,30.01,29.69,10,1,13,0.00
2013-3-16,55.7,44.4,36.8,42.2,35.9,31.4,85,73,55,29.84,29.57,6,1,0,0.00
2013-3-17,40.8,37.3,34.3,32.7,30.0,24.4,87,75,59,30.19,29.84,6,0,0,0.00
2013-3-18,39.9,36.9,34.2,34.1,28.2,19.3,86,71,51,30.25,29.78,7,1,0,0.43
2013-3-19,55.0,44.0,37.3,43.4,32.2,12.4,88,67,22,29.82,29.63,10,1,12,0.02
2013-3-20,52.6,42.7,31.7,31.5,20.1,13.9,69,43,22,29.91,29.69,10,1,13,0.00
2013-3-21,43.0,34.7,28.8,26.9,15.6,-99.9,75,49,34,29.81,29.65,12,3,14,0.00
2013-3-22,46.4,35.9,27.9,21.4,17.5,11.0,59,48,34,29.92,29.78,10,2,12,0.00
2013-3-23,51.7,39.2,25.7,26.5,23.0,18.5,78,54,34,29.93,29.82,16,1,16,0.00
2013-3-24,42.2,36.8,29.7,31.6,25.2,21.5,86,64,48,29.92,29.59,6,0,0,0.00
2013-3-25,35.0,33.5,31.9,30.9,29.0,26.8,87,83,81,29.60,29.42,4,0,0,0.79
2013-3-26,50.3,40.7,31.0,35.0,29.7,25.6,88,67,40,29.87,29.60,10,1,0,0.37
2013-3-27,49.7,43.9,38.2,32.4,29.4,26.0,71,57,44,29.99,29.87,14,2,17,0.00
2013-3-28,45.0,43.5,42.6,31.2,30.8,30.4,63,61,57,30.12,30.09,7,1,0,0.00
2013-3-29,55.2,46.2,35.6,31.7,29.3,26.6,70,53,36,30.15,30.04,10,1,0,0.00
2013-3-30,59.4,48.1,38.0,35.2,31.1,28.7,72,54,34,30.14,30.03,5,0,0,0.00
2013-3-31,50.6,49.7,47.7,45.4,44.9,43.4,86,84,81,29.70,29.66,3,0,0,0.04
2013-4-1,65.4,50.9,41.3,47.1,36.7,20.7,87,61,41,29.89,29.62,17,2,17,0.00
2013-4-2,49.1,41.1,30.2,21.3,17.8,15.1,64,40,27,30.08,29.89,15,2,15,0.00
2013-4-3,51.2,40.6,28.1,19.6,16.6,11.7,63,39,24,30.29,30.08,14,2,17,0.00
2013-4-4,48.0,38.4,26.3,34.5,22.0,11.4,85,53,26,30.33,30.02,6,0,0,0.02
2013-4-5,65.2,49.5,37.7,40.3,31.4,22.8,87,57,23,30.02,29.71,10,1,12,0.24
2013-4-6,53.1,45.5,38.7,35.9,24.0,16.0,74,44,24,30.25,29.94,8,1,12,0.00
2013-4-7,61.1,49.8,39.5,47.7,41.7,31.8,86,74,58,30.21,29.91,9,1,13,0.00
2013-4-8,71.2,58.3,48.0,51.3,46.6,42.7,84,67,46,29.99,29.92,4,0,0,0.00
2013-4-10,89.2,78.9,65.5,60.1,57.9,55.1,70,50,35,29.86,29.69,6,1,0,0.00
2013-4-11,81.9,68.2,56.2,65.0,58.4,51.7,85,72,54,29.81,29.68,7,1,12,0.00
2013-4-12,58.0,54.2,50.8,52.7,48.9,45.3,87,82,78,29.65,29.52,8,1,0,0.77
2013-4-13,65.5,54.5,43.0,48.5,43.7,37.8,88,69,40,29.86,29.65,8,1,12,0.00
2013-4-14,67.5,55.0,42.7,47.0,41.2,34.1,87,63,31,30.04,29.85,10,1,12,0.00
2013-4-15,61.9,56.0,51.4,50.0,48.5,45.9,86,76,62,30.22,30.04,6,0,0,0.00
2013-4-16,71.0,59.4,49.0,58.8,52.7,44.7,86,79,63,30.24,30.03,5,0,0,0.00
2013-4-17,73.8,63.2,55.9,62.3,55.7,50.0,87,77,64,30.16,30.02,6,0,0,0.00
2013-4-18,74.8,62.6,56.9,64.2,56.6,52.1,86,81,64,30.16,29.93,4,0,0,0.03
2013-4-19,74.8,64.2,52.7,66.1,58.8,48.6,87,83,74,29.94,29.56,8,1,14,0.39
2013-4-20,61.2,52.7,47.5,48.6,35.5,28.3,88,55,31,30.31,29.76,10,1,13,0.13
2013-4-21,52.1,45.6,40.6,34.0,27.7,22.5,72,50,37,30.59,30.31,10,1,0,0.00
2013-4-22,55.7,47.6,39.5,39.9,36.6,31.6,81,66,53,30.58,30.40,10,1,0,0.00
2013-4-23,60.3,50.2,45.1,45.9,42.1,38.9,87,75,56,30.40,30.12,6,0,0,0.00
2013-4-24,69.3,55.8,42.8,58.9,49.7,38.4,87,80,68,30.12,29.78,6,0,0,0.00
2013-4-25,64.9,54.4,46.0,57.3,39.3,30.9,82,58,37,30.28,29.92,12,2,14,0.02
2013-4-26,64.9,54.7,44.3,44.8,38.6,33.2,84,57,34,30.43,30.28,7,0,0,0.00
2013-4-27,69.1,56.2,42.4,48.3,39.2,28.6,87,58,25,30.42,30.27,6,0,0,0.00
2013-4-28,66.6,57.9,46.1,49.1,43.6,37.8,84,61,37,30.28,30.14,6,0,1,0.00
2013-4-29,59.1,55.9,53.6,53.6,50.0,42.9,86,81,60,30.16,30.05,4,0,2,0.42
2013-4-30,59.2,56.0,52.7,55.2,50.2,47.7,87,81,71,30.27,30.07,6,0,0,0.19
2013-5-1,69.4,57.4,48.3,49.8,44.4,37.7,84,64,34,30.42,30.27,7,0,0,0.00
2013-5-2,68.5,55.8,46.5,52.2,46.9,42.4,87,73,48,30.43,30.30,4,0,0,0.00
2013-5-3,62.7,53.9,46.0,47.7,44.3,41.7,87,71,50,30.37,30.29,7,1,0,0.00
2013-5-4,68.2,55.4,48.0,48.5,44.8,41.3,86,69,46,30.33,30.17,6,0,0,0.00
2013-5-5,62.9,52.2,45.8,47.7,43.2,39.0,82,72,54,30.24,30.15,8,0,0,0.00
2013-5-6,61.8,54.8,48.4,57.4,50.3,44.0,87,85,81,30.18,30.06,10,0,0,0.00
2013-5-7,61.5,58.8,56.8,55.0,52.4,50.4,83,79,77,30.07,29.93,5,1,0,0.90
2013-5-8,69.3,60.7,56.3,60.5,54.5,50.6,88,80,67,29.99,29.92,3,0,0,0.00
2013-5-9,73.0,61.9,52.0,62.6,55.1,46.5,87,79,60,29.97,29.90,4,0,0,0.00
2013-5-10,81.1,68.7,55.5,64.8,59.0,50.2,87,73,49,30.00,29.85,6,0,0,0.08
2013-5-11,78.8,67.2,62.6,67.6,60.3,56.3,87,79,62,29.92,29.69,10,0,12,0.39
2013-5-12,65.0,59.9,51.2,56.9,42.7,29.9,88,56,30,30.01,29.71,10,1,12,0.03
2013-5-13,60.4,51.9,42.0,36.7,31.1,24.9,80,47,28,30.14,30.01,12,1,16,0.00
2013-5-14,63.4,51.7,37.5,47.8,35.0,28.8,83,56,30,30.19,30.04,8,0,0,0.00
2013-5-15,77.1,65.0,54.8,64.8,55.6,47.5,87,72,57,30.06,29.66,4,0,0,0.00
2013-5-16,84.1,75.1,69.0,64.8,60.7,57.2,70,61,48,29.88,29.71,9,0,0,0.00
2013-5-17,78.8,69.9,58.8,58.5,52.2,42.8,87,56,33,30.14,29.88,5,0,0,0.00
2013-5-18,66.5,62.5,58.7,57.9,55.0,51.1,87,77,63,30.23,30.14,4,0,0,0.00
2013-5-19,71.7,64.2,59.0,66.0,58.7,53.2,87,82,78,30.20,30.08,4,0,0,0.06
2013-5-20,79.3,70.4,65.1,70.7,64.7,58.6,87,82,74,30.11,29.96,3,0,0,0.00
2013-5-21,80.9,71.8,65.7,72.2,65.7,59.2,87,81,73,29.99,29.85,3,0,0,0.00
2013-5-22,82.3,74.3,67.6,73.6,67.9,60.9,87,81,73,29.91,29.82,4,0,0,0.00
2013-5-23,79.1,72.5,65.5,72.1,67.2,61.1,87,84,74,29.89,29.74,5,0,0,0.05
2013-5-24,65.4,57.7,50.4,61.1,49.9,35.7,88,76,57,30.10,29.70,11,1,17,0.10
2013-5-25,65.5,54.9,44.4,40.5,37.2,34.1,71,53,35,30.12,30.04,12,2,15,0.00
2013-5-26,72.3,64.0,53.2,44.7,40.3,37.3,66,43,30,30.18,30.09,8,1,0,0.00
2013-5-27,70.8,62.7,52.5,51.9,45.4,38.5,73,55,33,30.26,30.16,4,0,0,0.00
2013-5-28,76.8,66.3,59.0,67.1,60.3,51.0,87,81,70,30.19,30.05,3,0,0,0.02
2013-5-29,84.7,75.4,66.3,73.2,67.7,61.3,88,78,65,30.10,30.05,3,0,0,0.00
2013-5-30,87.0,77.7,69.3,73.2,68.7,64.2,87,75,58,30.16,30.08,3,0,0,0.00
2013-5-31,86.9,76.6,67.1,72.5,68.6,63.1,88,77,60,30.14,30.01,4,0,0,0.00
2013-6-1,89.2,77.8,67.8,74.1,69.5,63.4,88,76,59,30.02,29.90,4,0,0,0.00
2013-6-2,87.0,77.1,68.5,73.5,68.3,61.3,86,75,61,29.91,29.80,5,0,0,0.29
2013-6-3,79.0,70.6,65.4,71.1,62.5,57.6,82,75,73,29.90,29.78,5,0,0,0.91
2013-6-4,76.5,66.3,58.5,59.9,52.6,45.9,83,63,43,30.10,29.90,7,0,0,0.00
2013-6-5,78.7,67.8,55.9,61.0,55.5,49.8,83,66,41,30.17,30.04,5,0,0,0.00
2013-6-6,75.6,68.3,61.5,65.6,60.1,55.7,82,75,65,30.08,29.86,5,0,0,0.18
2013-6-7,70.7,68.1,65.2,60.8,58.5,54.8,74,71,69,29.86,29.53,10,0,0,2.44
2013-6-8,79.8,69.6,63.8,67.9,59.2,53.4,77,70,61,30.06,29.64,4,0,0,0.00
2013-6-9,80.9,72.1,64.3,70.8,62.4,54.3,76,72,65,30.19,30.06,4,0,0,0.00
2013-6-10,80.2,73.3,69.2,71.0,62.1,57.8,74,68,66,30.09,29.78,5,0,0,0.62
2013-6-11,84.0,76.4,66.3,69.2,64.5,54.6,79,67,58,29.82,29.73,6,0,0,0.09
2013-6-12,86.8,77.0,67.5,72.2,67.0,59.3,79,72,59,29.84,29.76,8,0,0,0.02
2013-6-13,86.6,74.5,69.1,71.7,65.0,58.9,79,72,59,29.80,29.42,11,0,15,0.34
2013-6-14,78.3,67.8,59.1,60.4,55.5,49.1,80,66,45,29.93,29.53,10,1,13,0.07
2013-6-15,83.5,71.8,61.2,62.2,57.7,54.3,80,63,40,30.05,29.93,7,0,0,0.04
2013-6-16,82.0,73.2,64.5,70.1,64.0,56.4,79,73,60,30.00,29.84,3,0,0,0.02
2013-6-17,84.1,76.7,68.3,74.1,67.7,60.1,79,74,65,29.94,29.85,3,0,0,0.01
2013-6-18,77.0,70.7,62.4,70.0,60.9,50.9,79,71,66,29.91,29.76,4,0,0,0.09
2013-6-19,77.6,69.0,62.3,62.6,57.7,50.8,80,68,50,30.14,29.85,5,0,0,0.40
2013-6-20,79.3,70.8,62.3,63.0,58.7,53.3,80,66,52,30.26,30.14,3,0,0,0.00
2013-6-21,81.5,70.4,58.5,66.2,58.4,50.6,80,67,45,30.29,30.21,5,0,0,0.00
2013-6-22,83.8,74.0,64.1,69.3,63.2,52.9,80,69,57,30.24,30.13,5,0,0,0.00
2013-6-23,81.3,73.8,67.1,74.1,65.0,56.6,79,74,66,30.18,30.05,4,0,0,0.04
2013-6-24,87.4,78.0,71.2,78.1,68.2,58.8,80,72,65,30.10,29.97,2,0,0,0.00
2013-6-25,92.2,80.3,69.4,75.8,68.0,57.5,80,67,52,30.02,29.86,10,0,14,0.13
2013-6-26,86.6,76.4,67.4,76.6,66.5,55.2,80,72,64,29.92,29.77,3,0,0,0.01
2013-6-27,83.5,75.8,69.7,76.3,67.5,58.2,81,76,66,29.81,29.58,5,0,0,0.00
2013-6-28,84.8,75.6,70.2,76.1,65.6,57.7,81,71,64,29.61,29.47,3,0,0,0.13
2013-6-29,85.9,76.4,66.5,74.7,64.9,53.9,80,68,57,29.67,29.50,3,0,0,0.00
2013-6-30,83.2,76.5,73.1,75.6,65.7,61.1,79,69,62,29.83,29.67,4,0,0,0.37
2013-7-1,81.4,76.8,72.3,74.2,66.6,60.3,79,71,63,29.98,29.83,5,0,0,0.01
2013-7-2,83.1,76.3,72.1,75.1,66.4,59.7,79,72,64,30.17,29.98,4,0,0,0.21
2013-7-3,85.7,77.2,71.6,77.6,67.5,59.3,79,72,64,30.22,30.15,6,0,0,0.00
2013-7-4,87.3,79.7,73.4,77.6,70.3,60.5,80,73,64,30.24,30.15,4,0,0,0.00
2013-7-5,89.6,81.2,74.0,78.8,71.9,63.2,81,74,64,30.21,30.10,3,0,0,0.00
2013-7-6,90.0,82.4,75.9,80.0,73.7,67.0,80,75,66,30.17,30.04,3,0,0,0.00
2013-7-7,90.3,80.8,72.8,79.8,72.0,66.6,81,75,63,30.09,29.97,4,0,0,0.00
2013-7-8,86.8,77.8,70.8,73.0,67.9,60.6,81,72,56,30.08,30.01,2,0,0,0.00
2013-7-9,86.3,78.9,73.4,76.3,71.3,65.4,81,78,68,30.08,29.98,2,0,0,0.00
2013-7-10,87.4,79.8,73.2,79.0,71.1,61.9,80,75,67,30.00,29.84,4,0,0,0.00
2013-7-11,82.9,76.6,73.5,72.9,67.8,62.0,81,74,67,29.90,29.81,4,0,0,0.00
2013-7-12,75.3,70.7,67.4,69.1,59.1,54.5,81,67,62,29.98,29.85,7,0,0,3.59
2013-7-13,70.5,69.6,69.1,58.2,56.4,55.5,65,63,62,30.04,29.98,1,0,0,0.00
2013-7-14,86.0,79.6,76.3,74.7,71.3,68.5,80,76,66,30.28,30.25,0,0,0,0.00
2013-7-15,90.8,81.5,72.7,80.3,71.6,59.8,79,72,63,30.28,30.15,3,0,0,0.00
2013-7-16,91.6,84.0,77.8,77.0,73.5,70.7,80,72,56,30.21,30.13,6,0,0,0.00
2013-7-17,91.8,82.9,74.4,76.8,72.3,65.4,80,71,56,30.18,30.07,3,0,0,0.00
2013-7-18,93.0,84.1,76.4,82.2,75.2,66.0,80,75,65,30.09,29.97,3,0,0,0.00
2013-7-19,93.1,85.1,79.0,83.0,76.0,69.5,80,74,66,29.98,29.84,3,0,0,0.00
2013-7-20,94.4,84.3,78.1,78.2,74.1,67.1,80,72,55,29.87,29.76,4,0,0,0.00
2013-7-21,89.2,78.1,71.4,76.6,67.6,57.9,80,71,60,29.94,29.84,16,0,16,4.01
2013-7-22,88.1,79.1,73.1,77.9,67.4,57.9,79,68,58,29.90,29.74,3,0,0,0.00
2013-7-23,87.5,78.7,73.2,74.9,67.2,58.3,79,68,59,29.74,29.61,8,0,0,0.24
2013-7-24,83.3,76.3,70.9,71.5,67.0,61.1,80,73,63,29.89,29.65,6,0,0,0.00
2013-7-25,77.5,69.7,63.0,66.8,61.2,55.6,81,74,68,30.00,29.89,8,1,0,0.00
2013-7-26,82.0,73.2,67.5,67.8,63.8,61.1,81,73,58,30.07,30.00,4,0,0,0.00
2013-7-27,84.2,75.4,67.7,73.0,66.7,56.8,80,75,64,30.04,29.91,3,0,0,0.00
2013-7-28,84.0,76.2,71.7,75.5,68.0,58.0,80,76,61,29.95,29.86,3,0,0,0.03
2013-7-29,83.4,71.9,64.9,63.1,59.0,55.2,80,65,42,30.13,29.94,6,0,0,0.00
2013-7-30,81.8,71.3,62.1,66.1,60.8,56.0,81,70,53,30.20,30.12,4,0,0,0.00
2013-7-31,81.7,73.2,66.2,70.2,64.4,56.1,80,74,61,30.13,30.00,2,0,0,0.00
2013-8-1,82.1,73.0,68.3,73.6,61.6,55.6,80,68,59,30.00,29.78,3,0,0,0.56
2013-8-2,82.4,74.9,67.0,72.6,64.5,54.5,80,70,62,29.94,29.82,3,0,0,0.00
2013-8-3,71.4,69.3,68.4,64.9,60.7,57.8,80,74,69,29.93,29.90,0,0,0,0.00
2013-8-8,85.7,80.9,77.1,77.9,72.8,65.9,80,77,67,30.03,29.96,3,0,0,0.00
2013-8-9,81.4,77.3,74.2,73.6,64.2,58.9,79,64,59,29.97,29.83,4,0,0,1.42
2013-8-10,81.0,74.7,69.7,69.3,62.8,55.9,80,67,55,30.07,29.91,5,0,0,0.00
2013-8-11,82.5,74.6,68.8,72.8,65.3,57.0,80,73,65,30.10,30.00,4,0,0,0.00
2013-8-12,85.0,76.6,71.1,73.5,65.9,55.7,79,70,58,30.01,29.89,4,0,0,0.00
2013-8-13,83.0,76.9,71.6,73.2,67.3,57.4,80,73,61,29.89,29.72,5,0,0,0.16
2013-8-14,75.0,67.6,60.7,62.1,54.7,48.1,81,64,50,30.07,29.77,10,1,0,0.00
2013-8-15,74.7,65.4,58.0,57.3,54.0,50.3,81,68,46,30.17,30.07,5,0,0,0.00
2013-8-16,76.7,67.1,57.7,61.5,55.4,46.8,81,67,46,30.19,30.11,4,0,0,0.00
2013-8-17,77.9,69.0,60.3,65.2,57.9,47.5,79,68,55,30.26,30.18,5,0,0,0.00
2013-8-18,72.4,68.4,65.1,65.4,61.0,56.1,81,77,69,30.21,30.14,5,0,0,0.05
2013-8-19,75.6,69.0,63.1,67.9,59.7,50.4,81,73,62,30.16,30.05,2,0,0,0.00
2013-8-20,83.4,73.6,64.3,72.4,62.4,49.9,79,68,57,30.15,30.07,2,0,0,0.00
2013-8-21,85.5,77.0,69.5,75.7,66.2,54.2,79,69,57,30.18,30.05,2,0,0,0.00
2013-8-22,89.5,78.1,70.4,74.8,65.9,55.0,80,67,53,30.08,29.90,4,0,0,0.00
2013-8-23,77.5,72.2,64.3,68.8,64.3,57.6,81,77,64,30.09,29.91,4,0,0,0.00
2013-8-24,80.8,70.4,62.6,67.1,61.3,54.0,81,73,53,30.33,30.08,5,0,0,0.00
2013-8-25,79.3,68.7,60.8,63.6,55.4,47.1,81,64,38,30.40,30.25,7,0,0,0.00
2013-8-26,83.6,72.8,62.8,72.1,63.7,56.5,81,74,64,30.27,29.97,2,0,0,0.00
2013-8-27,85.8,77.5,70.6,74.3,68.8,60.8,80,75,65,29.98,29.85,7,0,0,0.07
2013-8-28,83.0,75.8,71.5,73.7,66.4,55.9,80,73,58,29.89,29.80,5,0,0,0.00
2013-8-29,83.2,74.9,70.6,72.7,63.3,54.3,79,68,56,30.01,29.82,5,0,0,0.00
2013-8-30,82.8,74.7,67.4,74.0,65.8,55.4,80,74,64,30.02,29.88,5,0,0,0.00
2013-8-31,86.3,77.8,70.4,76.2,68.7,57.2,80,74,63,29.90,29.78,4,0,0,0.00
2013-9-1,86.4,78.0,70.7,75.9,69.5,58.5,80,75,63,29.83,29.74,2,0,0,0.00
2013-9-2,79.0,77.9,77.3,72.3,71.2,70.4,80,80,79,29.74,29.72,0,0,0,0.00
2013-9-3,84.7,77.5,70.1,70.5,64.6,56.9,80,66,47,29.93,29.69,8,1,0,0.00
2013-9-4,81.0,69.5,60.1,65.5,58.8,54.2,81,70,51,30.05,29.92,6,0,0,0.00
2013-9-5,84.3,72.9,62.3,64.5,59.7,51.3,81,65,46,30.11,29.97,7,0,0,0.00
2013-9-6,69.0,63.6,60.3,55.0,52.0,49.6,72,66,53,30.23,30.10,7,0,0,0.00
2013-9-7,71.1,69.4,68.1,62.8,62.2,61.4,80,78,75,29.94,29.91,0,0,0,0.00
2013-9-8,85.3,74.1,65.6,70.2,63.6,53.2,80,70,55,30.04,29.85,6,0,0,0.00
2013-9-9,77.5,70.0,62.7,66.3,59.2,50.9,80,69,59,30.19,30.04,5,0,0,0.00
2013-9-10,86.5,77.4,70.3,76.0,68.9,59.4,80,75,64,30.17,30.07,5,0,0,0.00
2013-9-11,90.0,79.8,72.6,77.1,68.5,57.4,79,69,59,30.12,29.99,4,0,0,0.00
2013-9-12,87.0,74.7,69.1,76.3,63.8,52.7,80,69,56,29.99,29.71,13,0,14,0.00
2013-9-13,78.5,69.4,63.5,61.8,54.4,48.4,80,60,45,29.89,29.67,11,0,0,0.01
2013-9-14,63.4,57.3,53.3,53.8,49.9,47.3,81,76,68,30.15,29.89,4,0,0,0.00
2013-9-15,73.8,63.0,51.4,59.8,52.4,41.6,81,69,52,30.22,30.07,5,0,0,0.00
2013-9-16,72.3,66.2,62.8,60.7,58.6,56.5,81,77,62,30.10,30.01,6,0,0,0.01
2013-9-17,58.4,54.3,51.1,47.6,46.7,45.4,81,76,66,30.34,30.31,0,0,0,0.00
2013-9-18,69.9,57.4,47.8,54.1,46.4,36.9,81,68,35,30.33,30.18,4,0,0,0.00
2013-9-19,75.6,62.6,51.0,60.8,52.5,39.4,81,70,57,30.19,30.06,4,0,0,0.00
2013-9-20,77.3,66.1,55.3,63.6,56.5,43.4,81,72,58,30.08,29.95,3,0,0,0.00
2013-9-21,76.7,68.2,61.0,66.9,58.9,48.3,80,73,57,29.97,29.66,6,0,0,0.42
2013-9-22,70.5,64.2,58.2,59.0,50.6,43.0,80,62,54,29.92,29.69,10,0,12,0.01
2013-9-23,66.9,58.6,51.4,50.0,46.7,43.1,80,65,50,30.07,29.92,9,1,0,0.00
2013-9-24,73.0,56.6,46.8,54.0,45.7,35.3,82,68,42,30.09,29.92,7,0,0,0.00
2013-9-25,69.5,59.1,50.3,56.6,49.8,40.0,81,72,59,29.96,29.86,5,0,0,0.00
2013-9-26,73.2,61.9,54.8,59.9,51.6,43.3,80,69,55,30.06,29.90,4,0,0,0.00
2013-9-27,72.6,62.7,57.3,58.9,52.4,45.1,81,69,59,30.23,30.05,5,0,0,0.00
2013-9-28,60.2,58.0,55.8,54.3,50.6,47.2,81,76,71,30.26,30.21,1,0,0,0.00
2013-10-1,78.3,71.0,63.5,65.1,61.7,56.5,80,73,62,30.04,29.95,2,0,0,0.00
2013-10-2,85.2,71.8,62.6,65.3,61.3,56.1,81,71,47,30.06,29.97,5,0,0,0.00
2013-10-3,80.8,70.5,61.9,69.2,61.9,52.0,80,74,64,30.10,30.02,2,0,0,0.00
2013-10-4,84.8,72.1,62.1,70.6,61.2,47.7,79,69,55,30.07,29.98,3,0,0,0.00
2013-10-5,86.6,74.7,67.2,70.8,64.7,58.2,80,72,56,30.07,29.99,3,0,0,0.00
2013-10-6,85.1,74.8,66.5,72.0,63.6,51.0,79,69,55,30.02,29.92,26,0,35,0.00
2013-10-7,76.0,67.5,55.7,68.9,57.6,46.7,82,71,61,30.02,29.78,6,0,0,0.55
2013-10-8,65.2,58.2,50.4,51.9,49.0,43.0,82,72,59,30.26,30.02,6,0,0,0.00
2013-10-9,61.4,59.3,56.0,53.3,51.3,48.5,81,75,65,30.29,30.18,6,0,0,0.06
2013-10-10,58.4,56.6,55.0,50.3,42.7,40.1,80,60,55,30.18,29.94,8,1,0,4.45
2013-10-11,63.3,60.7,57.9,46.4,44.2,41.8,55,55,54,29.98,29.90,5,0,0,1.34
2013-10-12,66.3,62.3,60.4,59.1,50.7,44.6,80,67,55,30.15,29.96,4,0,0,0.95
2013-10-13,65.6,60.6,57.7,58.9,50.4,43.3,81,70,56,30.31,30.14,5,0,0,0.64
2013-10-14,57.8,57.6,57.4,52.0,51.8,51.5,81,81,80,30.30,30.28,2,0,0,0.00
2013-10-15,62.7,62.5,62.1,53.2,53.0,52.6,71,71,71,30.09,30.09,0,0,0,0.00
2013-10-19,60.6,57.8,53.6,50.3,48.5,45.8,76,71,66,29.83,29.78,3,0,0,0.04
2013-10-20,63.8,53.1,45.2,48.7,40.9,37.3,82,65,39,30.08,29.83,14,1,14,0.00
2013-10-21,65.1,54.6,42.9,50.8,44.6,34.7,82,70,48,30.14,29.96,3,0,0,0.00
2013-10-22,65.6,56.1,49.5,53.1,48.4,42.0,82,75,62,29.96,29.80,6,0,0,0.00
2013-10-23,56.2,49.9,44.6,45.3,39.5,35.6,82,68,53,29.86,29.63,6,0,0,0.13
2013-10-24,51.8,44.8,38.5,38.1,33.0,26.8,82,65,41,30.12,29.86,9,1,0,0.00
2013-10-25,54.7,44.6,37.5,36.2,33.3,31.6,80,66,46,30.30,30.11,10,1,12,0.00
2013-10-26,58.2,46.4,33.7,35.9,32.3,29.1,83,60,38,30.28,29.92,6,0,0,0.00
2013-10-27,60.4,49.4,40.5,39.9,36.9,33.8,82,63,44,30.14,29.92,8,0,0,0.00
2013-10-28,60.2,48.6,39.1,48.4,40.7,33.1,82,74,63,30.27,30.13,3,0,0,0.00
2013-10-29,60.6,50.1,42.7,49.2,41.1,31.2,82,71,62,30.36,30.26,4,0,0,0.00
2013-10-30,61.9,53.9,49.4,55.6,42.3,36.4,80,65,55,30.32,30.15,2,0,0,0.13
2013-10-31,66.0,59.7,51.2,59.3,48.2,37.0,80,66,54,30.18,29.78,5,0,0,0.00
2013-11-1,70.4,64.3,57.0,63.1,54.1,41.6,79,70,56,29.78,29.58,10,0,0,0.18
2013-11-2,68.5,57.0,48.2,56.3,43.9,34.6,81,62,50,29.85,29.61,4,0,0,0.07
2013-11-3,54.7,48.5,40.5,42.6,35.5,25.8,81,62,36,30.45,29.85,13,1,13,0.00
2013-11-4,44.7,39.8,35.3,32.2,27.5,24.1,80,62,46,30.62,30.45,7,0,0,0.00
2013-11-5,57.6,49.5,37.5,48.2,42.6,31.9,82,77,68,30.60,30.46,3,0,0,0.00
2013-11-6,63.0,56.0,46.6,54.7,48.4,37.2,81,76,62,30.46,30.05,6,0,0,0.00
2013-11-7,63.5,54.5,45.0,56.8,42.8,27.9,80,65,51,30.05,29.83,11,1,0,0.02
2013-11-8,50.9,42.6,33.4,32.6,27.9,24.8,81,57,38,30.30,30.05,13,1,13,0.00
2013-11-9,54.1,44.0,31.7,34.2,30.2,26.6,82,60,41,30.34,30.01,5,0,0,0.00
2013-11-10,63.2,50.8,43.5,39.6,32.0,29.0,63,50,31,30.20,29.92,13,1,13,0.00
2013-11-11,56.6,47.7,34.6,42.7,33.8,28.6,81,59,43,30.29,29.98,4,0,0,0.00
2013-11-12,52.2,41.4,30.8,38.3,25.5,15.1,70,53,41,30.37,29.96,16,2,16,0.00
2013-11-13,42.6,34.0,28.4,23.3,20.1,15.5,75,57,40,30.45,30.36,11,1,12,0.00
2013-11-14,53.3,39.8,27.2,38.1,4.1,-99.9,81,62,32,30.38,30.21,4,0,0,0.00
2013-11-15,56.0,43.5,31.2,39.1,28.9,-99.9,81,62,46,30.27,30.18,3,0,0,0.00
2013-11-18,67.5,59.4,51.3,33.2,28.8,25.3,43,32,21,29.87,29.70,9,1,12,0.16
2013-11-19,49.2,44.5,39.3,29.3,27.5,24.7,59,51,44,30.35,30.11,14,2,14,0.00
2013-11-20,44.1,37.8,31.7,29.7,26.4,24.1,81,64,51,30.56,30.34,6,0,0,0.00
2013-11-21,47.4,41.5,33.1,40.7,35.4,27.3,82,79,73,30.56,30.38,3,0,0,0.00
2013-11-22,60.7,52.6,44.8,51.9,45.8,39.3,82,78,72,30.38,29.97,3,0,0,0.00
2013-11-23,56.7,47.4,32.4,50.9,31.6,12.9,81,56,30,30.17,29.99,14,2,14,0.00
2013-11-24,32.4,27.4,23.6,13.3,8.9,6.0,59,45,36,30.50,30.17,15,3,18,0.00
2013-11-25,34.7,28.3,20.0,19.1,12.5,9.4,65,52,37,30.56,30.35,6,0,0,0.00
2013-11-26,56.9,38.1,33.3,40.2,24.5,14.8,82,59,43,30.35,29.51,8,0,0,1.59
2013-11-27,57.3,39.2,29.6,43.5,29.0,17.4,83,67,54,29.99,29.46,16,2,16,1.39
2013-11-28,37.1,30.4,25.4,22.7,17.3,14.4,75,59,40,30.48,29.99,12,1,12,0.00
2013-11-29,41.1,32.4,24.1,25.9,22.1,19.1,82,67,46,30.71,30.45,10,0,0,0.00
2013-11-30,36.8,31.1,26.5,26.3,22.6,18.2,82,71,58,30.71,30.37,5,0,0,0.00
2013-12-1,45.6,34.9,24.3,33.8,27.7,18.8,82,76,56,30.37,30.01,4,0,0,0.00
2013-12-2,45.4,40.6,38.2,38.0,34.1,30.0,82,78,67,30.01,29.86,2,0,0,0.00
2013-12-3,52.9,43.3,39.2,37.6,34.7,28.3,82,72,52,29.99,29.86,3,0,0,0.00
2013-12-4,51.4,45.6,37.5,45.1,36.3,24.6,81,70,57,30.08,29.98,1,0,0,0.00
2013-12-5,59.1,52.8,48.7,52.2,39.3,33.8,79,60,55,30.07,29.92,5,0,0,0.00
2013-12-6,56.9,48.5,37.3,40.5,34.5,25.8,65,59,54,30.16,29.87,9,1,0,0.56
2013-12-7,42.8,37.3,30.5,33.5,28.4,22.8,83,70,63,30.52,30.10,10,1,0,0.19
2013-12-8,32.4,30.4,28.2,24.0,22.3,20.1,82,72,63,30.58,30.26,6,0,0,0.00
2013-12-9,35.4,33.4,31.9,22.4,20.7,18.9,64,59,57,30.27,30.01,4,0,0,0.06
2013-12-10,35.2,32.0,26.9,28.5,21.3,18.6,84,65,57,30.22,29.96,5,0,0,0.14
2013-12-11,38.6,29.9,23.4,27.4,21.2,17.3,82,70,51,30.40,30.22,5,0,0,0.07
2013-12-12,30.4,26.5,22.5,22.8,14.7,9.1,83,61,42,30.42,30.23,10,1,12,0.00
2013-12-13,41.9,32.4,22.9,25.8,18.2,13.6,78,57,37,30.31,30.20,6,0,0,0.04
2013-12-14,40.4,35.9,30.6,32.7,28.1,23.2,82,74,57,30.32,29.66,5,0,0,0.99
2013-12-15,46.4,37.3,29.5,38.1,25.7,19.7,82,63,57,29.93,29.61,11,2,14,0.00
2013-12-16,35.8,32.4,27.0,25.8,23.3,18.4,81,69,59,30.19,29.93,8,0,0,0.00
2013-12-17,34.9,33.0,30.7,29.7,25.6,-99.9,82,79,72,30.17,29.93,6,0,0,0.00
2013-12-18,39.1,31.9,26.1,26.5,22.5,19.0,83,69,46,30.22,29.97,13,1,14,0.00
2013-12-19,52.7,39.8,25.5,36.6,28.2,18.3,83,64,43,30.20,30.07,6,0,0,0.00
2013-12-20,59.4,52.1,40.9,51.0,37.5,29.3,78,58,41,30.10,29.99,7,1,0,0.00
2013-12-21,70.4,56.7,50.5,56.3,47.9,43.0,80,73,59,30.01,29.89,10,1,0,0.00
2013-12-22,67.8,58.4,53.7,60.9,44.5,37.9,79,60,53,30.01,29.82,7,0,0,0.57
2013-12-23,59.2,52.4,39.6,44.5,39.1,30.3,82,61,54,30.20,29.92,12,1,12,0.55
2013-12-24,40.2,34.3,24.0,30.6,21.9,8.9,79,61,43,30.44,30.17,14,2,14,0.00
2013-12-25,29.3,23.8,19.2,18.6,13.6,10.4,83,65,51,30.56,30.39,8,1,0,0.00
2013-12-26,42.6,30.5,21.1,27.4,22.1,16.4,83,72,50,30.39,30.21,5,0,0,0.00
2013-12-27,46.2,35.1,25.3,32.4,23.5,17.8,78,63,46,30.41,30.31,3,0,0,0.00
2013-12-28,50.4,44.2,39.7,37.8,35.5,31.6,81,72,54,30.24,30.11,2,0,0,0.00
2013-12-29,48.3,43.2,39.2,38.8,33.2,28.2,82,68,54,30.10,29.51,7,0,0,1.19
2013-12-30,45.6,38.3,31.8,39.8,28.2,21.3,82,67,58,30.18,29.80,8,1,13,0.00
2013-12-31,43.4,33.7,24.8,30.4,21.9,16.9,77,62,46,30.33,30.08,12,1,14,0.00
2014-1-1,40.6,32.7,24.3,32.9,24.9,17.8,82,73,58,30.42,30.13,4,0,0,0.00
2014-1-2,36.5,33.0,27.6,30.9,23.8,18.8,81,69,59,30.13,29.59,3,0,0,0.00